Погода в Маленьком

Россия / Республика Крым     45°04′33″N   34°00′03″E
темп.,
°C
ветер,
м/с
пор.,
м/с
влажн.,
%
обл.,
%
осадки,
мм/ч
давл.,
гПа
погр.,
м
6 мая, чт
чт600:00+8ююв22543 0.0 101317
03:00+7юв22466 0.0 101213
06:00+8юв224460 0.0 101113
09:00+16ю113474 0.0 1011370
12:00+19сз3231100 0.0 10111248
15:00+19зсз53385 0.0 10121015
18:00+16зсз43465 0.0 1012472
21:00+10зюз11785 0.0 101510
7 мая, пт
пт700:00+9ююв11725 0.0 101510
03:00+9ю11682 0.0 101610
06:00+9ююв21675 0.0 101610
09:00+16зсз015035 0.0 1016413
12:00+20з3347100 0.0 10161151
15:00+20з5549100 0.0 1015967
18:00+17зюз44585 0.0 1015419
21:00+13юв2271100 0.0 101515
8 мая, сб
сб800:00+12ююв336345 0.0 101444
03:00+11ююв3377100 0.0 101331
06:00+12юв3374100 0.0 101239
09:00+20юв235193 0.0 1011342
12:00+24з23375 0.0 10101748
15:00+22зсз864896 0.0 1010827
18:00+16зюз446694 0.0 1012443
21:00+12ссв71080100 0.1 1013743
9 мая, вс
вс900:00+8с61196100 9.2 1015692
03:00+7с71095100 16.6 10171050
06:00+7ссз5109245 2.3 1019860
09:00+9ссз697212 2.6 10211265
12:00+12ссз685174 0.3 10232074
15:00+14с6841100 0.3 10242663
18:00+13ссз465036 0.0 10252090
21:00+7з23735 0.0 102839
10 мая, пн
пн1000:00+6ю337958 0.0 102851
03:00+6ю22805 0.0 102820
06:00+6ю22804 0.0 102814
09:00+12ссв23605 0.0 1027608
12:00+15с34446 0.0 10261986
15:00+16с44405 0.0 10242108
18:00+14с45495 0.0 10231811
21:00+9ссв12664 0.0 102311